Kincheloe, MI

12:49 PM EDT on August 31, 2016 (GMT -0400)
Chippewa County International

Weather History for KCIU - December, 2012

Change the Weather History Date:

Monday, December 24, 2012

  Actual Average Record
Temperature  
Mean Temperature 24 °F -  
Max Temperature 26 °F 25 °F 53 °F (2015)
Min Temperature 21 °F 7 °F -11 °F (1983)
Degree Days  
Heating Degree Days 42    
Moisture  
Dew Point 20 °F    
Average Humidity 89    
Maximum Humidity 100    
Minimum Humidity 74    
Precipitation  
Precipitation 0.00 in - - ()
Sea Level Pressure  
Sea Level Pressure 29.95 in    
Wind  
Wind Speed 7 mph (WSW)    
Max Wind Speed 12 mph    
Max Gust Speed -    
Visibility 10 miles    
Events      
Averages and records for this station are not official NWS values.
T = Trace of Precipitation, MM = Missing Value Source: NWS Daily Summary

Daily Weather History Graph

Daily Weather History Graph

Search for Another Location

Airport or City:

Trip Planner

Search our weather history database for the weather conditions in past years. The results will help you decide how hot, cold, wet, or windy it might be!

Date:

Astronomy

Dec. 24, 2012 Rise Set
Actual Time 8:19 AM EST 4:56 PM EST
Civil Twilight 7:44 AM EST 5:31 PM EST
Nautical Twilight 7:06 AM EST 6:09 PM EST
Astronomical Twilight 6:29 AM EST 6:45 PM EST
Moon 2:27 PM EST (12/24) 4:52 AM EST (12/24)
Length of Visible Light 9h 46m
Length of Day
8h 36m
Waxing Gibbous, 88% of the Moon is Illuminated
Dec 24
Waxing Gibbous
Dec 28
Full
Jan 4
Last Quarter
Jan 11
New
Jan 18
First Quarter

Hourly Weather History & Observations

Time (EST) Temp. Windchill Dew Point Humidity Pressure Visibility Wind Dir Wind Speed Gust Speed Precip Events Conditions
12:15 AM 21.2 °F 10.9 °F 21.2 °F 100% 29.93 in 10.0 mi West 9.2 mph - N/A   Overcast
12:35 AM 21.2 °F 12.6 °F 21.2 °F 100% 29.93 in 10.0 mi WSW 6.9 mph - N/A   Overcast
12:55 AM 21.2 °F 10.9 °F 19.4 °F 93% 29.93 in 10.0 mi West 9.2 mph - N/A   Overcast
1:15 AM 21.2 °F 11.7 °F 19.4 °F 93% 29.93 in 10.0 mi WSW 8.1 mph - N/A   Overcast
1:35 AM 23.0 °F 13.9 °F 19.4 °F 86% 29.92 in 10.0 mi WSW 8.1 mph - N/A   Overcast
1:55 AM 23.0 °F 13.9 °F 19.4 °F 86% 29.93 in 10.0 mi WSW 8.1 mph - N/A   Overcast
2:15 AM 23.0 °F 14.7 °F 19.4 °F 86% 29.93 in 10.0 mi WSW 6.9 mph - N/A   Overcast
2:35 AM 23.0 °F 14.7 °F 21.2 °F 93% 29.94 in 10.0 mi WSW 6.9 mph - N/A   Overcast
2:55 AM 23.0 °F 13.1 °F 21.2 °F 93% 29.95 in 10.0 mi WSW 9.2 mph - N/A   Overcast
3:15 AM 23.0 °F 14.7 °F 19.4 °F 86% 29.95 in 10.0 mi WSW 6.9 mph - N/A   Overcast
3:35 AM 23.0 °F 15.8 °F 19.4 °F 86% 29.95 in 10.0 mi WSW 5.8 mph - N/A   Overcast
3:55 AM 23.0 °F 15.8 °F 19.4 °F 86% 29.95 in 10.0 mi WSW 5.8 mph - N/A   Overcast
4:15 AM 23.0 °F 15.8 °F 19.4 °F 86% 29.94 in 10.0 mi WSW 5.8 mph - N/A   Overcast
4:35 AM 21.2 °F 13.6 °F 19.4 °F 93% 29.95 in 10.0 mi WSW 5.8 mph - N/A   Overcast
4:55 AM 21.2 °F 13.6 °F 19.4 °F 93% 29.94 in 10.0 mi WSW 5.8 mph - N/A   Overcast
5:15 AM 21.2 °F 13.6 °F 19.4 °F 93% 29.94 in 10.0 mi WSW 5.8 mph - N/A   Overcast
5:35 AM 21.2 °F 13.6 °F 19.4 °F 93% 29.93 in 10.0 mi West 5.8 mph - N/A   Overcast
5:55 AM 21.2 °F 14.9 °F 19.4 °F 93% 29.93 in 10.0 mi WSW 4.6 mph - N/A   Overcast
6:15 AM 21.2 °F 13.6 °F 19.4 °F 93% 29.93 in 10.0 mi WSW 5.8 mph - N/A   Overcast
6:35 AM 21.2 °F 13.6 °F 19.4 °F 93% 29.93 in 10.0 mi SW 5.8 mph - N/A   Overcast
6:55 AM 21.2 °F 14.9 °F 19.4 °F 93% 29.93 in 10.0 mi SW 4.6 mph - N/A   Overcast
7:15 AM 21.2 °F 13.6 °F 19.4 °F 93% 29.93 in 10.0 mi SW 5.8 mph - N/A   Overcast
7:35 AM 21.2 °F 13.6 °F 19.4 °F 93% 29.93 in 10.0 mi SW 5.8 mph - N/A   Overcast
7:55 AM 21.2 °F 14.9 °F 19.4 °F 93% 29.94 in 10.0 mi SW 4.6 mph - N/A   Overcast
8:15 AM 21.2 °F 14.9 °F 19.4 °F 93% 29.94 in 10.0 mi SW 4.6 mph - N/A   Overcast
8:35 AM 21.2 °F 14.9 °F 19.4 °F 93% 29.94 in 10.0 mi WSW 4.6 mph - N/A   Overcast
8:55 AM 21.2 °F 14.9 °F 19.4 °F 93% 29.95 in 10.0 mi WSW 4.6 mph - N/A   Overcast
9:15 AM 21.2 °F 16.4 °F 19.4 °F 93% 29.95 in 10.0 mi WSW 3.5 mph - N/A   Overcast
9:35 AM 21.2 °F 16.4 °F 19.4 °F 93% 29.95 in 10.0 mi SW 3.5 mph - N/A   Overcast
9:55 AM 23.0 °F 18.4 °F 19.4 °F 86% 29.95 in 10.0 mi WSW 3.5 mph - N/A   Overcast
10:15 AM 23.0 °F 18.4 °F 19.4 °F 86% 29.95 in 10.0 mi WSW 3.5 mph - N/A   Overcast
10:35 AM 24.8 °F 19.1 °F 19.4 °F 80% 29.96 in 10.0 mi WSW 4.6 mph - N/A   Overcast
10:55 AM 24.8 °F 20.5 °F 19.4 °F 80% 29.96 in 10.0 mi WSW 3.5 mph - N/A   Overcast
11:15 AM 24.8 °F 19.1 °F 19.4 °F 80% 29.96 in 10.0 mi WSW 4.6 mph - N/A   Overcast
11:35 AM 24.8 °F 17.9 °F 19.4 °F 80% 29.95 in 10.0 mi WSW 5.8 mph - N/A   Overcast
11:55 AM 24.8 °F 16.1 °F 19.4 °F 80% 29.95 in 10.0 mi WSW 8.1 mph - N/A   Overcast
12:15 PM 26.6 °F 20.0 °F 19.4 °F 74% 29.95 in 10.0 mi WSW 5.8 mph - N/A   Overcast
12:35 PM 26.6 °F 20.0 °F 21.2 °F 80% 29.94 in 10.0 mi West 5.8 mph - N/A   Overcast
12:55 PM 26.6 °F 19.1 °F 21.2 °F 80% 29.94 in 10.0 mi West 6.9 mph - N/A   Overcast
1:15 PM 26.6 °F 20.0 °F 21.2 °F 80% 29.94 in 10.0 mi WSW 5.8 mph - N/A   Overcast
1:35 PM 26.6 °F 17.5 °F 21.2 °F 80% 29.93 in 10.0 mi West 9.2 mph - N/A   Overcast
1:55 PM 26.6 °F 19.1 °F 21.2 °F 80% 29.93 in 10.0 mi West 6.9 mph - N/A   Overcast
2:15 PM 26.6 °F 18.2 °F 21.2 °F 80% 29.92 in 10.0 mi West 8.1 mph - N/A   Overcast
2:35 PM 26.6 °F 19.1 °F 21.2 °F 80% 29.92 in 10.0 mi West 6.9 mph - N/A   Overcast
2:55 PM 26.6 °F 20.0 °F 21.2 °F 80% 29.93 in 10.0 mi West 5.8 mph - N/A   Overcast
3:15 PM 26.6 °F 19.1 °F 21.2 °F 80% 29.93 in 10.0 mi West 6.9 mph - N/A   Overcast
3:35 PM 26.6 °F 20.0 °F 21.2 °F 80% 29.93 in 10.0 mi West 5.8 mph - N/A   Overcast
3:55 PM 26.6 °F 19.1 °F 21.2 °F 80% 29.93 in 8.0 mi West 6.9 mph - N/A   Overcast
4:15 PM 24.8 °F 19.1 °F 21.2 °F 86% 29.94 in 6.0 mi West 4.6 mph - N/A   Overcast
4:35 PM 24.8 °F 19.1 °F 21.2 °F 86% 29.94 in 7.0 mi West 4.6 mph - N/A   Overcast
4:55 PM 24.8 °F 17.9 °F 21.2 °F 86% 29.94 in 10.0 mi West 5.8 mph - N/A   Overcast
5:15 PM 24.8 °F 19.1 °F 23.0 °F 93% 29.95 in 7.0 mi West 4.6 mph - N/A   Overcast
5:35 PM 24.8 °F 17.9 °F 23.0 °F 93% 29.95 in 4.0 mi West 5.8 mph - N/A   Overcast
5:55 PM 24.8 °F 19.1 °F 23.0 °F 93% 29.96 in 3.0 mi West 4.6 mph - N/A   Overcast
6:15 PM 24.8 °F 20.5 °F 23.0 °F 93% 29.96 in 4.0 mi WSW 3.5 mph - N/A   Overcast
6:35 PM 23.0 °F 17.0 °F 23.0 °F 100% 29.96 in 9.0 mi WSW 4.6 mph - N/A   Overcast
6:55 PM 23.0 °F 18.4 °F 21.2 °F 93% 29.97 in 10.0 mi WSW 3.5 mph - N/A   Overcast
7:15 PM 23.0 °F 17.0 °F 23.0 °F 100% 29.97 in 10.0 mi West 4.6 mph - N/A   Mostly Cloudy
7:35 PM 23.0 °F 17.0 °F 23.0 °F 100% 29.98 in 10.0 mi West 4.6 mph - N/A   Overcast
7:55 PM 23.0 °F 17.0 °F 23.0 °F 100% 29.98 in 9.0 mi West 4.6 mph - N/A   Overcast
8:15 PM 23.0 °F 14.7 °F 23.0 °F 100% 29.98 in 9.0 mi West 6.9 mph - N/A   Overcast
8:35 PM 23.0 °F 14.7 °F 21.2 °F 93% 29.98 in 10.0 mi West 6.9 mph - N/A   Overcast
8:55 PM 23.0 °F 13.9 °F 21.2 °F 93% 29.99 in 10.0 mi West 8.1 mph - N/A   Overcast
9:15 PM 23.0 °F 14.7 °F 21.2 °F 93% 29.99 in 10.0 mi West 6.9 mph - N/A   Overcast
9:35 PM 23.0 °F 14.7 °F 21.2 °F 93% 30.00 in 10.0 mi West 6.9 mph - N/A   Overcast
9:55 PM 23.0 °F 14.7 °F 21.2 °F 93% 30.00 in 10.0 mi West 6.9 mph - N/A   Overcast
10:15 PM 23.0 °F 13.1 °F 19.4 °F 86% 30.00 in 10.0 mi West 9.2 mph - N/A   Overcast
10:35 PM 23.0 °F 13.1 °F 19.4 °F 86% 30.02 in 10.0 mi West 9.2 mph - N/A   Overcast
10:55 PM 23.0 °F 13.9 °F 19.4 °F 86% 30.02 in 10.0 mi West 8.1 mph - N/A   Overcast
11:15 PM 23.0 °F 11.7 °F 19.4 °F 86% 30.03 in 10.0 mi West 11.5 mph - N/A   Overcast
11:55 PM 21.2 °F 12.6 °F 19.4 °F 93% 30.04 in 10.0 mi WSW 6.9 mph - N/A   Overcast